FALCON 9 DEB (47185 NORAD) Tracking and Keplerian Element Data

This shows tracking and keplerian element data for the satellite.

Feedback or suggestion? Click here.




ElementValue
Catalog47185
NameFALCON 9 DEB
Epoch Orbit402
Epoch Day352.06797244
Epoch Year2020
RAAN239.5417
Inclination53.0401
Eccentricity0.0018971
Argument of Perigee136.7266
Mean Anonmoly223.5274
Mean Motion16.39351016
Decay Rate0.05128456
L11 47185U 20088BR 20352.06797244 .05128456 12217-4 35792-3 0 9991
L22 47185 53.0401 239.5417 0018971 136.7266 223.5274 16.39351016 4024

Live tracking and technical data element details for FALCON 9 DEB (NORAD 47185). FALCON 9 DEB can be tracked NOW for your location showing map with azimuth and elevation plus other details from your city location.

Track the satellite on the map from your city or location and see movement details for azimuth, elevation, latitude, longitude, range, height, and movement on the map or in text.







IsCatalogInMostPopularTable: catalog: 47185, numindb: 44
Update: records affected: 1



GetName: 47185 FALCON 9 DEB

Hit Count: updated at: Fri, 05 Mar 2021 07:02:57 GMT